[[{"header":{"parameterUnit":"m.s-1","parameterCategory":1,"la1":30.2991,"la2":30.254,"lo1":-89.0895,"lo2":-89.0444,"dy":0.0017,"dx":0.0017,"nx":28,"ny":28,"refTime":"2023-09-11T21:00:00:Z","depth":0,"parameterNumber":2,"parameterNumberName":"U-component_of_WINDS"},"data":[0,0,0,0,0,0,0,0,0,0,0,0,0,0,0,0,0,0,0,0,0,0,0,0,0,0,0,0,0,0,0,0,0,0,0,0,0,0,0,0,0,0,0,0,0,0,0,0,0,0,0,0,0,0,0,0,0,0,-1.7268,-1.7268,0,-1.7304,-1.7305,-1.7305,-1.7312,-1.7312,-1.7311,-1.7311,-1.7347,-1.7348,-1.7349,0,0,0,0,0,0,0,0,0,0,0,0,0,-1.7203,-1.7205,-1.7268,-1.7268,-1.7269,-1.7304,-1.7305,-1.7305,-1.7312,-1.7312,-1.7311,-1.7311,-1.7346,-1.7348,-1.7349,0,0,0,0,0,0,0,0,0,0,0,0,0,-1.7235,-1.7205,-1.7268,-1.7277,-1.7278,-1.7304,-1.7305,-1.7305,-1.7312,-1.7312,-1.7311,-1.7311,-1.7346,-1.7347,-1.7349,-1.7369,0,0,-1.7355,-1.7356,0,0,0,0,0,0,0,0,-1.7233,-1.7237,-1.7275,-1.7276,-1.7277,-1.7303,-1.7295,-1.7327,-1.7312,-1.7299,-1.7311,-1.7311,-1.7332,-1.7335,-1.7343,-1.7371,-1.7372,-1.7355,-1.7356,-1.7357,-1.7357,0,0,0,0,0,0,0,-1.7231,-1.7236,-1.7282,-1.7275,-1.7277,-1.7278,-1.7282,-1.7301,-1.7318,-1.73,-1.7301,-1.7305,-1.7333,-1.7341,-1.7344,-1.7373,-1.7355,-1.7356,-1.7358,-1.7358,-1.7418,-1.7419,0,0,0,0,0,0,-1.7227,-1.7234,-1.7281,-1.7283,-1.7254,-1.728,-1.7284,-1.7295,-1.7317,-1.732,-1.7305,-1.7305,-1.7338,-1.7342,-1.7345,-1.7369,-1.7357,-1.7359,-1.736,-1.7418,-1.7418,-1.7419,0,0,0,0,0,0,-1.7226,-1.7231,-1.728,-1.7259,-1.7265,-1.7281,-1.7294,-1.7296,-1.7304,-1.7321,-1.7324,-1.7311,-1.7338,-1.7343,-1.7363,-1.7371,-1.7359,-1.7361,-1.7417,-1.7418,-1.7419,-1.7418,0,0,0,0,0,0,-1.7224,-1.7231,-1.7239,-1.7259,-1.7266,-1.7297,-1.7294,-1.7297,-1.7308,-1.7308,-1.7327,-1.733,-1.7338,-1.736,-1.7365,-1.7373,-1.7362,-1.7416,-1.7417,-1.7418,-1.7417,-1.7419,-1.742,0,0,0,0,0,-1.7222,-1.7237,-1.7239,-1.7245,-1.7276,-1.7298,-1.7302,-1.7311,-1.7308,-1.7316,-1.7327,-1.7329,-1.7369,-1.7362,-1.7368,-1.7376,-1.7416,-1.7417,-1.7418,-1.7417,-1.7418,-1.742,0,0,0,0,0,0,-1.7217,-1.724,-1.7242,-1.7265,-1.7279,-1.7299,-1.7309,-1.7313,-1.7328,-1.7328,-1.7338,-1.7343,-1.7362,-1.7372,-1.7363,-1.7396,-1.7392,-1.7395,-1.739,-1.7391,-1.7392,-1.7389,-1.7364,0,0,0,0,0,-1.7218,-1.7234,-1.7253,-1.7271,-1.7278,-1.7293,-1.7302,-1.7308,-1.7324,-1.733,-1.7342,-1.7357,-1.7372,-1.7382,-1.7398,-1.7419,-1.7423,-1.7428,-1.7429,-1.743,-1.7431,-1.7443,-1.7445,-1.7423,-1.7423,-1.7423,0,0,-1.7221,-1.7236,-1.7245,-1.7271,-1.7283,-1.7298,-1.7298,-1.7314,-1.7326,-1.7332,-1.7352,-1.7362,-1.7379,-1.74,-1.7409,-1.7408,-1.7438,-1.7431,-1.7432,-1.7433,-1.7444,-1.7446,-1.7448,-1.7423,-1.7423,-1.7423,0,0,-1.7235,-1.7248,-1.7264,-1.7277,-1.7295,-1.7305,-1.7308,-1.7328,-1.7334,-1.7355,-1.736,-1.7374,-1.7401,-1.7413,-1.7422,-1.7441,-1.7443,-1.7446,-1.7451,-1.7462,-1.7464,-1.7466,-1.7472,-1.7474,-1.7447,-1.7447,-1.7447,0,-1.7237,-1.7261,-1.7272,-1.7289,-1.7299,-1.7307,-1.7323,-1.7334,-1.7356,-1.7363,-1.7361,-1.7396,-1.7407,-1.7431,-1.7435,-1.7443,-1.7447,-1.7443,-1.7463,-1.7465,-1.7466,-1.7472,-1.7474,-1.7447,-1.7447,-1.7447,-1.7447,0,-1.7262,-1.7279,-1.7289,-1.7311,-1.7323,-1.734,-1.7353,-1.7363,-1.7369,-1.7378,-1.7399,-1.7413,-1.7432,-1.7438,-1.7443,-1.7462,-1.7461,-1.7461,-1.7457,-1.7468,-1.7474,-1.7476,-1.7447,-1.7447,-1.7447,-1.7447,0,0,-1.7272,-1.7301,-1.7304,-1.7314,-1.7335,-1.7348,-1.7365,-1.7384,-1.7392,-1.7408,-1.7422,-1.7445,-1.7445,-1.7456,-1.7462,-1.7472,-1.7485,-1.7471,-1.7472,-1.7473,-1.7507,-1.7506,-1.7508,-1.7488,-1.7488,-1.7489,-1.7505,0,-1.7288,-1.7318,-1.7329,-1.7353,-1.7369,-1.7376,-1.739,-1.7405,-1.7414,-1.7428,-1.7439,-1.7454,-1.7454,-1.7461,-1.7471,-1.7482,-1.7492,-1.7481,-1.75,-1.75,-1.7494,-1.7511,-1.7511,-1.7526,-1.7507,-1.7508,-1.7508,0,-1.731,-1.7326,-1.7353,-1.7372,-1.7379,-1.7391,-1.7409,-1.7423,-1.7439,-1.7446,-1.7458,-1.7464,-1.7481,-1.7477,-1.75,-1.7492,-1.7501,-1.7507,-1.7508,-1.7509,-1.7504,-1.7512,-1.7531,-1.7532,-1.7512,-1.7512,-1.7511,0,-1.7314,-1.7343,-1.7362,-1.7371,-1.7394,-1.7402,-1.7412,-1.7428,-1.7439,-1.7455,-1.7461,-1.7479,-1.7488,-1.7501,-1.7511,-1.7507,-1.7534,-1.753,-1.7539,-1.7538,-1.7543,-1.7542,-1.7562,-1.755,-1.755,-1.755,-1.755,0,-1.733,-1.7346,-1.7364,-1.7376,-1.7394,-1.7406,-1.7423,-1.7433,-1.7447,-1.7461,-1.7468,-1.7481,-1.7494,-1.7508,-1.7517,-1.7535,-1.7539,-1.7544,-1.7546,-1.7543,-1.7542,-1.7548,-1.7547,-1.755,-1.755,-1.755,-1.755,0,-1.7338,-1.7351,-1.7372,-1.7393,-1.7398,-1.741,-1.7427,-1.7439,-1.7449,-1.7466,-1.7471,-1.7486,-1.7503,-1.7516,-1.7537,-1.7543,-1.7562,-1.7564,-1.7556,-1.7557,-1.7564,-1.7563,-1.7588,-1.7591,-1.7578,-1.7578,-1.7578,0,-1.7346,-1.7359,-1.738,-1.739,-1.74,-1.7416,-1.7427,-1.744,-1.7451,-1.747,-1.7479,-1.7497,-1.7512,-1.7539,-1.7552,-1.7569,-1.7571,-1.7578,-1.7573,-1.757,-1.757,-1.7569,-1.757,-1.7578,-1.7579,-1.7579,-1.7579,0,-1.736,-1.7366,-1.7382,-1.74,-1.7413,-1.7428,-1.7443,-1.745,-1.7465,-1.7477,-1.7495,-1.7506,-1.7529,-1.7546,-1.7565,-1.7574,-1.7579,-1.758,-1.7583,-1.758,-1.7574,-1.7577,-1.7558,-1.7579,-1.7579,-1.7579,-1.7579,-1.7579,-1.7368,-1.7379,-1.7396,-1.7414,-1.7426,-1.744,-1.7452,-1.7464,-1.7479,-1.7498,-1.7505,-1.7523,-1.7539,-1.7564,-1.7574,-1.7589,-1.7588,-1.7592,-1.7593,-1.7594,-1.7593,-1.7573,-1.7592,-1.7592,-1.7592,-1.7592,-1.7592,0,-1.7382,-1.7394,-1.7409,-1.743,-1.7443,-1.7447,-1.7464,-1.7475,-1.7491,-1.7506,-1.7521,-1.7541,-1.7558,-1.7573,-1.759,-1.7599,-1.7601,-1.7603,-1.7602,-1.7604,-1.7593,-1.7589,-1.7601,-1.7601,-1.7601,-1.7601,-1.7601,-1.7601,-1.7391,-1.7409,-1.7418,-1.7443,-1.7454,-1.7472,-1.7481,-1.7494,-1.7506,-1.7529,-1.7543,-1.7553,-1.7567,-1.7586,-1.7602,-1.7606,-1.7611,-1.7612,-1.7617,-1.7606,-1.7605,-1.7604,-1.76,-1.7614,-1.7614,-1.7626,-1.7626,-1.7627]},{"header":{"parameterUnit":"m.s-1","parameterCategory":1,"la1":30.2991,"la2":30.254,"lo1":-89.0895,"lo2":-89.0444,"dy":0.0017,"dx":0.0017,"nx":28,"ny":28,"refTime":"2023-09-11T21:00:00:Z","depth":0,"parameterNumber":3,"parameterNumberName":"V-component_of_WINDS"},"data":[0,0,0,0,0,0,0,0,0,0,0,0,0,0,0,0,0,0,0,0,0,0,0,0,0,0,0,0,0,0,0,0,0,0,0,0,0,0,0,0,0,0,0,0,0,0,0,0,0,0,0,0,0,0,0,0,0,0,3.3097,3.3097,0,3.3103,3.3103,3.3103,3.3113,3.3113,3.3113,3.3113,3.3118,3.3118,3.3118,0,0,0,0,0,0,0,0,0,0,0,0,0,3.3093,3.3093,3.3097,3.3097,3.3097,3.3103,3.3103,3.3103,3.3113,3.3113,3.3113,3.3113,3.3118,3.3118,3.3118,0,0,0,0,0,0,0,0,0,0,0,0,0,3.3097,3.3093,3.3097,3.3103,3.3103,3.3103,3.3103,3.3103,3.3113,3.3113,3.3113,3.3113,3.3118,3.3118,3.3118,3.3112,0,0,3.3118,3.3118,0,0,0,0,0,0,0,0,3.3096,3.3097,3.3102,3.3102,3.3103,3.3107,3.3103,3.3106,3.3112,3.3109,3.3113,3.3113,3.3114,3.3114,3.3115,3.3112,3.3113,3.3118,3.3118,3.3118,3.3118,0,0,0,0,0,0,0,3.3096,3.3097,3.3099,3.3102,3.3102,3.3105,3.3105,3.3104,3.311,3.3109,3.311,3.3111,3.3115,3.3115,3.3115,3.3113,3.3118,3.3118,3.3118,3.3118,3.3106,3.3105,0,0,0,0,0,0,3.3095,3.3096,3.3099,3.3099,3.31,3.3104,3.3105,3.3106,3.311,3.3111,3.311,3.3111,3.3115,3.3115,3.3115,3.3109,3.3118,3.3118,3.3118,3.3106,3.3106,3.3105,0,0,0,0,0,0,3.3095,3.3095,3.3099,3.3098,3.3099,3.3104,3.3104,3.3106,3.3106,3.3111,3.3112,3.311,3.3115,3.3115,3.3113,3.3109,3.3118,3.3118,3.3106,3.3106,3.3106,3.3095,0,0,0,0,0,0,3.3095,3.3095,3.3093,3.3098,3.3099,3.3097,3.3104,3.3105,3.3106,3.3107,3.3111,3.3111,3.3115,3.3113,3.3113,3.3109,3.3118,3.3107,3.3106,3.3106,3.3096,3.3095,3.3094,0,0,0,0,0,3.3095,3.309,3.3093,3.3093,3.3096,3.3096,3.3097,3.3102,3.3106,3.3104,3.3107,3.3111,3.311,3.3113,3.3113,3.3109,3.3107,3.3106,3.3106,3.3097,3.3095,3.3094,0,0,0,0,0,0,3.3084,3.3091,3.3094,3.3091,3.3093,3.3098,3.3095,3.31,3.3101,3.3101,3.3107,3.3108,3.3105,3.3107,3.311,3.3103,3.3109,3.3108,3.3102,3.3101,3.3099,3.3099,3.3117,0,0,0,0,0,3.3082,3.3081,3.3087,3.3083,3.3084,3.309,3.309,3.3094,3.3096,3.3097,3.31,3.3102,3.3102,3.3101,3.3101,3.3097,3.3097,3.3094,3.3093,3.3092,3.3091,3.3088,3.3087,3.3103,3.3103,3.3103,0,0,3.3076,3.3079,3.3079,3.3081,3.3083,3.3083,3.309,3.3089,3.3089,3.3097,3.3094,3.3097,3.3099,3.3096,3.3094,3.3097,3.3087,3.3091,3.309,3.309,3.3088,3.3086,3.3085,3.3103,3.3103,3.3103,0,0,3.3065,3.3068,3.3065,3.3067,3.3071,3.3074,3.3074,3.3078,3.308,3.3078,3.3084,3.3084,3.3083,3.3085,3.3086,3.3076,3.308,3.3076,3.3069,3.3066,3.3065,3.3064,3.306,3.3059,3.3075,3.3075,3.3075,0,3.3058,3.3057,3.3063,3.3062,3.3063,3.307,3.3068,3.3069,3.3072,3.3073,3.3076,3.3076,3.3078,3.3075,3.3073,3.3073,3.3072,3.3075,3.3065,3.3064,3.3063,3.3059,3.3058,3.3075,3.3075,3.3075,3.3075,0,3.3047,3.3047,3.3044,3.3048,3.3048,3.3046,3.3052,3.3052,3.3056,3.3059,3.3057,3.306,3.3061,3.3061,3.3064,3.3058,3.3059,3.3064,3.3069,3.306,3.3057,3.3056,3.3074,3.3074,3.3074,3.3074,0,0,3.303,3.3037,3.3036,3.3037,3.3042,3.3041,3.304,3.3041,3.3041,3.3043,3.3041,3.3041,3.3045,3.3046,3.305,3.3048,3.304,3.3052,3.3052,3.3049,3.3032,3.3029,3.3027,3.3043,3.3042,3.3042,3.3032,0,3.302,3.3017,3.3023,3.3019,3.3019,3.3026,3.3025,3.3027,3.303,3.303,3.3034,3.3033,3.3039,3.3039,3.3038,3.3041,3.3036,3.3042,3.3041,3.3041,3.3039,3.3026,3.3022,3.3012,3.3031,3.3031,3.3031,0,3.3007,3.3009,3.3005,3.301,3.301,3.3009,3.301,3.301,3.3013,3.3016,3.3017,3.3022,3.302,3.3026,3.3024,3.3027,3.3027,3.3029,3.3029,3.3028,3.3035,3.3024,3.3009,3.3008,3.3029,3.3029,3.3029,0,3.2994,3.2996,3.2994,3.2995,3.3,3.2999,3.3001,3.3005,3.3005,3.3007,3.3007,3.3008,3.3009,3.3009,3.3014,3.3018,3.3011,3.3018,3.3013,3.3013,3.3011,3.301,3.2995,3.3011,3.3011,3.3011,3.3012,0,3.2982,3.2979,3.2988,3.2987,3.2984,3.299,3.2987,3.299,3.2993,3.2992,3.2999,3.2998,3.3005,3.3004,3.3008,3.3005,3.3006,3.3007,3.3008,3.3006,3.3006,3.3006,3.3007,3.3011,3.3011,3.3011,3.3011,0,3.2967,3.2973,3.2971,3.2976,3.2978,3.2975,3.298,3.2979,3.2983,3.2982,3.2982,3.2988,3.2988,3.2993,3.2994,3.2996,3.2992,3.2994,3.2991,3.2991,3.2986,3.2986,3.2969,3.2967,3.2986,3.2985,3.2985,0,3.2959,3.2957,3.2962,3.2962,3.2964,3.2965,3.2965,3.2972,3.2972,3.2975,3.2974,3.2974,3.2975,3.2975,3.2979,3.298,3.2982,3.2976,3.2982,3.298,3.2981,3.2981,3.2981,3.2974,3.2974,3.2974,3.2974,0,3.2943,3.2946,3.2947,3.2949,3.2949,3.2951,3.2953,3.2953,3.296,3.296,3.296,3.2961,3.2962,3.2962,3.2964,3.2966,3.2971,3.2972,3.2971,3.2968,3.2966,3.2967,3.2987,3.2972,3.2972,3.2972,3.2972,3.2972,3.2931,3.2929,3.2933,3.2934,3.2936,3.2938,3.2937,3.2941,3.2942,3.2943,3.2947,3.2947,3.295,3.2953,3.2954,3.2954,3.2957,3.2955,3.2955,3.2954,3.2953,3.2967,3.2954,3.2954,3.2954,3.2954,3.2954,0,3.2915,3.2918,3.2919,3.2922,3.2922,3.2927,3.293,3.293,3.293,3.2932,3.2933,3.2933,3.2934,3.2938,3.2939,3.2938,3.294,3.2938,3.2938,3.2938,3.295,3.2951,3.2936,3.2936,3.2936,3.2936,3.2936,3.2936,3.2907,3.2905,3.2909,3.2908,3.2911,3.2911,3.2912,3.2913,3.2915,3.2915,3.2916,3.2919,3.2922,3.2924,3.2924,3.2925,3.2925,3.2922,3.2924,3.2935,3.2937,3.2939,3.2939,3.2922,3.2922,3.2912,3.2911,3.2911]}]]